WZZ5AK EBCI-LHBP

Flight info

Callsign WZZ5AK
Flight time N/A
Altitude 37000
Route SOPOK Y863 OGLOR DCT EMGOD DCT BOMBI DCT BARSU DCT EKSOS DCT LULAR DCT RUDAP DCT BUDEX DCT MAREG DCT ANEXA
Aircraft A320/M-SDE3FGHIRWY/LB1

Departure

Time 2026-05-01 15:08
Airport Brussels South Charleroi Airport (EBCI)

Arrival

Time N/A
Airport Budapest Liszt Ferenc International Airport (LHBP)
Time Latitude Longitude Altitude Speed Heading
2026-05-01 14:38 50.46943 4.47343 613 ft 0 kts 335°
2026-05-01 14:59 50.46931 4.47352 625 ft 4 kts 336°
2026-05-01 14:59 50.46906 4.47365 628 ft 4 kts
2026-05-01 14:59 50.46885 4.47351 627 ft 4 kts 56°
2026-05-01 14:59 50.46879 4.47334 619 ft 1 kts 65°
2026-05-01 15:00 50.46879 4.47333 613 ft 0 kts 65°
2026-05-01 15:02 50.46880 4.47339 613 ft 2 kts 65°
2026-05-01 15:02 50.46886 4.47358 649 ft 0 kts 65°
2026-05-01 15:03 50.46896 4.47393 617 ft 6 kts 65°
2026-05-01 15:03 50.46909 4.47438 618 ft 7 kts 65°
2026-05-01 15:03 50.46933 4.47523 625 ft 10 kts 67°
2026-05-01 15:03 50.46906 4.47618 617 ft 12 kts 148°
2026-05-01 15:04 50.46838 4.47669 618 ft 6 kts 156°
2026-05-01 15:04 50.46833 4.47672 616 ft 0 kts 156°
2026-05-01 15:05 50.46832 4.47672 616 ft 0 kts 156°
2026-05-01 15:06 50.46825 4.47677 616 ft 2 kts 156°
2026-05-01 15:06 50.46804 4.47692 619 ft 5 kts 156°
2026-05-01 15:06 50.46750 4.47728 622 ft 10 kts 156°
2026-05-01 15:06 50.46689 4.47709 624 ft 11 kts 235°
2026-05-01 15:07 50.46637 4.47521 622 ft 42 kts 244°
2026-05-01 15:07 50.46418 4.46776 624 ft 108 kts 245°
2026-05-01 15:07 50.46032 4.45454 620 ft 156 kts 245°
2026-05-01 15:07 50.45575 4.43858 1148 ft 159 kts 244°
2026-05-01 15:08 50.45128 4.42281 1856 ft 158 kts 243°
2026-05-01 15:08 50.44688 4.40705 2474 ft 157 kts 243°
2026-05-01 15:08 50.44238 4.39140 3037 ft 158 kts 243°
2026-05-01 15:08 50.43782 4.37560 3598 ft 160 kts 244°
2026-05-01 15:09 50.43303 4.35912 3955 ft 179 kts 244°
2026-05-01 15:09 50.42724 4.33961 4031 ft 214 kts 244°
2026-05-01 15:09 50.42086 4.31757 4563 ft 227 kts 245°
2026-05-01 15:09 50.41432 4.29495 5398 ft 230 kts 243°
2026-05-01 15:10 50.40422 4.27452 6073 ft 242 kts 217°
2026-05-01 15:10 50.37243 4.26564 7844 ft 245 kts 159°
2026-05-01 15:10 50.35867 4.28107 8717 ft 248 kts 129°
2026-05-01 15:11 50.35150 4.30567 9497 ft 259 kts 103°
2026-05-01 15:11 50.34711 4.36677 10203 ft 306 kts 97°
2026-05-01 15:11 50.34522 4.40120 10446 ft 329 kts 97°
2026-05-01 15:12 50.34324 4.43755 10952 ft 339 kts 97°
2026-05-01 15:12 50.33899 4.51189 12385 ft 346 kts 98°
2026-05-01 15:12 50.33672 4.54951 13111 ft 349 kts 98°
2026-05-01 15:13 50.32937 4.66434 15092 ft 358 kts 98°
2026-05-01 15:14 50.32428 4.74248 16291 ft 364 kts 98°
2026-05-01 15:14 50.32170 4.78214 16873 ft 368 kts 98°
2026-05-01 15:14 50.31643 4.86248 18069 ft 375 kts 98°
2026-05-01 15:15 50.31107 4.94434 19184 ft 381 kts 98°
2026-05-01 15:15 50.30551 5.02733 20300 ft 386 kts 98°
2026-05-01 15:16 50.29984 5.11139 21377 ft 391 kts 97°
2026-05-01 15:16 50.29403 5.19644 22399 ft 396 kts 97°
2026-05-01 15:17 50.28807 5.28253 23384 ft 401 kts 97°
2026-05-01 15:18 50.27888 5.41335 24666 ft 408 kts 97°
2026-05-01 15:18 50.27573 5.45755 25070 ft 410 kts 97°
2026-05-01 15:19 50.26611 5.59159 26246 ft 416 kts 97°
2026-05-01 15:19 50.25952 5.68216 26961 ft 422 kts 97°
2026-05-01 15:19 50.25616 5.72780 27366 ft 424 kts 97°
2026-05-01 15:20 50.24978 5.81998 28083 ft 430 kts 96°
2026-05-01 15:20 50.24745 5.86670 28475 ft 432 kts 95°
2026-05-01 15:20 50.24550 5.91369 28814 ft 435 kts 95°
2026-05-01 15:21 50.24363 5.96099 29183 ft 437 kts 95°
2026-05-01 15:21 50.24169 6.00851 29547 ft 440 kts 95°
2026-05-01 15:21 50.23959 6.05632 29881 ft 442 kts 95°
2026-05-01 15:21 50.23733 6.10429 30279 ft 443 kts 95°
2026-05-01 15:22 50.23259 6.20019 31108 ft 443 kts 95°
2026-05-01 15:22 50.23016 6.24818 31513 ft 443 kts 95°
2026-05-01 15:22 50.22772 6.29613 31890 ft 443 kts 95°
2026-05-01 15:23 50.22526 6.34411 32282 ft 444 kts 95°
2026-05-01 15:23 50.22280 6.39220 32678 ft 444 kts 95°
2026-05-01 15:23 50.22035 6.44025 33076 ft 444 kts 95°
2026-05-01 15:23 50.21788 6.48846 33392 ft 447 kts 95°
2026-05-01 15:24 50.21540 6.53679 33738 ft 448 kts 95°
2026-05-01 15:24 50.21286 6.58531 34144 ft 449 kts 95°
2026-05-01 15:24 50.21026 6.63389 34457 ft 450 kts 95°
2026-05-01 15:24 50.20811 6.68258 34834 ft 449 kts 93°
2026-05-01 15:25 50.20690 6.73125 35220 ft 448 kts 92°
2026-05-01 15:25 50.20627 6.77987 35578 ft 448 kts 91°
2026-05-01 15:25 50.20586 6.82837 35978 ft 446 kts 91°
2026-05-01 15:25 50.20540 6.87673 36310 ft 446 kts 91°
2026-05-01 15:26 50.20479 6.92502 36661 ft 445 kts 91°
2026-05-01 15:26 50.20403 6.97321 36995 ft 444 kts 91°
2026-05-01 15:26 50.20313 7.02134 37242 ft 444 kts 92°
2026-05-01 15:26 50.20213 7.06964 37295 ft 447 kts 92°
2026-05-01 15:27 50.20005 7.16693 37299 ft 449 kts 92°
2026-05-01 15:28 50.19672 7.31271 37298 ft 450 kts 93°
2026-05-01 15:28 50.18905 7.40968 37302 ft 451 kts 97°
2026-05-01 15:29 50.17626 7.55485 37303 ft 451 kts 98°
2026-05-01 15:30 50.15860 7.74828 37311 ft 451 kts 98°
2026-05-01 15:31 50.13158 8.03787 37308 ft 451 kts 98°
2026-05-01 15:32 50.11310 8.23145 37301 ft 452 kts 98°
2026-05-01 15:34 50.08466 8.52204 37316 ft 453 kts 98°